"Period start","avg(HW err(1)/warn(2) (#))","avg(Visibility (m))","avg(Weather code (#))","avg(Precip intensity (mm/h))","min(HW err(1)/warn(2) (#))","max(HW err(1)/warn(2) (#))","std(HW err(1)/warn(2) (#))","med(HW err(1)/warn(2) (#))","min(Visibility (m))","max(Visibility (m))","std(Visibility (m))","med(Visibility (m))","min(Weather code (#))","max(Weather code (#))","std(Weather code (#))","med(Weather code (#))","min(Precip intensity (mm/h))","max(Precip intensity (mm/h))","std(Precip intensity (mm/h))","med(Precip intensity (mm/h))"
2017-05-05 00:00:00,2,8994,71,0.20,2,2,0,2,7159,10784,1286,8907,71,71,0,71,0.00,0.40,0.14,0.25
2017-05-05 00:10:00,2,8072,71,0.49,2,2,0,2,4711,11876,2378,8074,71,71,0,71,0.05,1.80,0.54,0.17
2017-05-05 00:20:00,2,6970,71,1.06,2,2,0,2,2371,13689,3504,6910,71,71,0,71,0.05,2.65,0.89,0.75
2017-05-05 00:30:00,2,9540,71,0.40,2,2,0,2,4476,19350,3702,8865,71,71,0,71,0.05,1.15,0.37,0.25
2017-05-05 00:40:00,2,5997,71,0.82,2,2,0,2,3347,10341,1979,5650,71,71,0,71,0.10,2.05,0.57,0.70
2017-05-05 00:50:00,2,7031,71,0.65,2,2,0,2,3939,12601,2699,6894,71,71,0,71,0.00,1.85,0.52,0.70
2017-05-05 01:00:00,2,5665,71,0.92,2,2,0,2,3525,7509,1313,5887,71,71,0,71,0.20,1.65,0.46,0.88
2017-05-05 01:10:00,2,11860,71,0.22,2,2,0,2,6628,22689,5101,10328,71,71,0,71,0.00,0.40,0.13,0.25
2017-05-05 01:20:00,2,14526,71,0.26,2,2,0,2,6525,27667,6620,12542,71,71,0,71,0.00,1.30,0.37,0.17
2017-05-05 01:30:00,2,13565,71,0.23,2,2,0,2,9272,19629,3105,13602,71,71,0,71,0.05,0.55,0.16,0.20
2017-05-05 01:40:00,2,18630,71,0.06,2,2,0,2,11973,32770,6305,17977,71,71,0,71,0.00,0.20,0.06,0.05
2017-05-05 01:50:00,2,13425,71,0.32,2,2,0,2,9322,18057,2730,13046,71,71,0,71,0.00,0.75,0.24,0.33
2017-05-05 02:00:00,2,16049,71,0.46,2,2,0,2,7428,28070,7267,13741,71,71,0,71,0.05,1.00,0.31,0.40
2017-05-05 02:10:00,2,14400,71,0.38,2,2,0,2,7436,19907,3662,13216,71,71,0,71,0.05,1.00,0.33,0.35
2017-05-05 02:20:00,2,15260,71,0.34,2,2,0,2,9030,23999,4788,15366,71,71,0,71,0.05,0.65,0.19,0.33
2017-05-05 02:30:00,2,12415,71,0.46,2,2,0,2,8105,24527,4728,10362,71,71,0,71,0.00,1.00,0.37,0.38
2017-05-05 02:40:00,2,13881,71,0.27,2,2,0,2,9413,19792,3726,13793,71,71,0,71,0.05,0.65,0.22,0.20
2017-05-05 02:50:00,2,12456,71,0.51,2,2,0,2,6344,25439,5184,11500,71,71,0,71,0.15,0.80,0.22,0.45
2017-05-05 03:00:00,2,18417,71,0.26,2,2,0,2,8943,26029,6522,18734,71,71,0,71,0.05,0.50,0.18,0.25
2017-05-05 03:10:00,2,16160,71,0.33,2,2,0,2,9783,28367,5785,14036,71,71,0,71,0.00,0.70,0.21,0.35
2017-05-05 03:20:00,2,19102,71,0.26,2,2,0,2,12258,26989,5029,20298,71,71,0,71,0.00,0.80,0.27,0.17
2017-05-05 03:30:00,2,7372,71,0.88,2,2,0,2,3561,11441,2919,8254,71,71,0,71,0.15,1.90,0.54,0.75
2017-05-05 03:40:00,2,3683,71,2.35,2,2,0,2,1462,6233,1604,3891,71,71,0,71,0.80,4.65,1.37,2.02
2017-05-05 03:50:00,2,22629,71,0.31,2,2,0,2,3580,50000,14629,20556,71,71,0,71,0.00,1.20,0.40,0.15
2017-05-05 04:00:00,2,20706,71,0.19,2,2,0,2,4113,40940,14384,15343,71,71,0,71,0.00,0.65,0.20,0.12
2017-05-05 04:10:00,2,9814,71,0.34,2,2,0,2,4897,14570,2596,10118,71,71,0,71,0.05,0.65,0.22,0.30
2017-05-05 04:20:00,2,18506,71,0.10,2,2,0,2,10542,35714,7292,16929,71,71,0,71,0.00,0.25,0.07,0.10
2017-05-05 04:30:00,2,9874,71,0.53,2,2,0,2,1666,24433,7364,8389,71,71,0,71,0.15,1.80,0.48,0.38
2017-05-05 04:40:00,2,23156,71,0.14,2,2,0,2,8808,35669,9249,26513,71,71,0,71,0.00,0.30,0.12,0.12
2017-05-05 04:50:00,2,22382,71,0.14,2,2,0,2,8197,39598,12328,19086,71,71,0,71,0.00,0.35,0.12,0.17
2017-05-05 05:00:00,2,28621,57,0.06,2,2,0,2,9807,47858,12953,30258,0,71,28,71,0.00,0.35,0.11,0.00
2017-05-05 05:10:00,2,19855,50,0.22,2,2,0,2,6197,38032,11515,17633,0,71,33,71,0.00,0.85,0.27,0.12
2017-05-05 05:20:00,2,10934,71,0.48,2,2,0,2,5204,19754,5439,8327,71,71,0,71,0.00,1.30,0.41,0.40
2017-05-05 05:30:00,2,26478,57,0.08,2,2,0,2,7740,50000,13966,19866,0,71,28,71,0.00,0.25,0.09,0.05
2017-05-05 05:40:00,2,22267,71,0.21,2,2,0,2,7154,42958,12340,21432,71,71,0,71,0.00,0.95,0.29,0.05
2017-05-05 05:50:00,2,45161,73,0.02,2,2,0,2,39462,50000,4139,46218,71,77,3,71,0.00,0.15,0.05,0.00
2017-05-05 06:00:00,2,26940,75,0.07,2,2,0,2,12989,36609,8059,30098,71,77,3,77,0.00,0.30,0.09,0.05
2017-05-05 06:10:00,2,31467,71,0.10,2,2,0,2,8075,48413,11613,34538,71,71,0,71,0.00,0.55,0.16,0.05
2017-05-05 06:20:00,2,19682,71,0.18,2,2,0,2,11890,39454,8986,15390,71,71,0,71,0.00,0.75,0.23,0.08
2017-05-05 06:30:00,2,15648,71,0.34,2,2,0,2,8549,38675,9097,11070,71,71,0,71,0.00,0.75,0.30,0.25
2017-05-05 06:40:00,2,33204,71,0.09,2,2,0,2,14564,46446,11204,32793,71,71,0,71,0.00,0.25,0.10,0.05
2017-05-05 06:50:00,2,22579,71,0.17,2,2,0,2,10675,39982,9388,21424,71,71,0,71,0.00,0.55,0.20,0.10
2017-05-05 07:00:00,2,20247,71,0.21,2,2,0,2,6533,37016,9283,19463,71,71,0,71,0.00,0.80,0.27,0.08
2017-05-05 07:10:00,2,30694,65,0.06,2,2,0,2,21976,40081,5696,31474,41,71,12,71,0.00,0.30,0.09,0.03
2017-05-05 07:20:00,2,40099,71,0.05,2,2,0,2,19141,50000,9645,42802,71,71,0,71,0.00,0.35,0.10,0.00
2017-05-05 07:30:00,2,26817,71,0.13,2,2,0,2,9029,41244,11857,25554,71,71,0,71,0.00,0.50,0.16,0.05
2017-05-05 07:40:00,2,25544,71,0.16,2,2,0,2,10051,40401,9426,27745,71,71,0,71,0.00,0.75,0.24,0.05
2017-05-05 07:50:00,2,14806,71,0.27,2,2,0,2,6043,35932,9192,11496,71,71,0,71,0.00,0.70,0.23,0.25
2017-05-05 08:00:00,2,23150,71,0.21,2,2,0,2,6670,36878,9687,26964,71,71,0,71,0.05,0.95,0.27,0.05
2017-05-05 08:10:00,2,33074,71,0.05,2,2,0,2,18524,48990,10418,31978,71,71,0,71,0.00,0.35,0.10,0.00
2017-05-05 08:20:00,2,24079,71,0.29,2,2,0,2,8792,39527,9362,22112,71,71,0,71,0.00,0.90,0.32,0.10
2017-05-05 08:30:00,2,27944,71,0.14,2,2,0,2,9912,45656,10917,28468,71,71,0,71,0.00,0.50,0.15,0.15
2017-05-05 08:40:00,2,47574,34,0.00,2,2,0,2,38776,50000,3696,50000,0,71,30,41,0.00,0.00,0.00,0.00
2017-05-05 08:50:00,2,33950,28,0.03,2,2,0,2,22431,50000,9347,32442,0,71,35,0,0.00,0.20,0.06,0.00
2017-05-05 09:00:00,2,27501,71,0.11,2,2,0,2,15161,43217,9707,26831,71,71,0,71,0.00,0.20,0.06,0.10
2017-05-05 09:10:00,2,29148,71,0.24,2,2,0,2,12915,39866,10216,34056,71,71,0,71,0.00,0.45,0.17,0.25
2017-05-05 09:20:00,2,41841,71,0.02,2,2,0,2,19804,50000,10103,46548,71,71,0,71,0.00,0.10,0.03,0.00
2017-05-05 09:30:00,2,44670,62,0.00,2,2,0,2,32910,50000,5269,45347,41,77,17,74,0.00,0.00,0.00,0.00
2017-05-05 09:40:00,2,42684,76,0.04,2,2,0,2,24749,50000,9351,48372,71,77,2,77,0.00,0.25,0.07,0.00
2017-05-05 09:50:00,2,39090,71,0.02,2,2,0,2,22033,50000,9433,39834,71,71,0,71,0.00,0.10,0.03,0.00
2017-05-05 10:00:00,2,48929,69,0.00,2,2,0,2,46308,50000,1346,49882,0,77,23,77,0.00,0.00,0.00,0.00
2017-05-05 10:10:00,2,46067,0,0.00,2,2,0,2,40432,50000,3268,45122,0,0,0,0,0.00,0.00,0.00,0.00
2017-05-05 10:20:00,2,45216,0,0.00,2,2,0,2,36243,50000,5738,48988,0,0,0,0,0.00,0.00,0.00,0.00
2017-05-05 10:30:00,2,45074,0,0.00,2,2,0,2,33646,50000,4419,45460,0,0,0,0,0.00,0.00,0.00,0.00
2017-05-05 10:40:00,2,41262,72,0.04,2,2,0,2,29726,50000,7220,42564,71,77,2,71,0.00,0.10,0.04,0.05
2017-05-05 10:50:00,2,36156,71,0.22,2,2,0,2,12471,50000,13896,41950,71,71,0,71,0.00,0.50,0.19,0.15
2017-05-05 11:00:00,2,42814,71,0.04,2,2,0,2,26613,50000,8661,48716,71,71,0,71,0.00,0.15,0.05,0.00
2017-05-05 11:10:00,2,47572,72,0.03,2,2,0,2,38191,50000,4119,50000,71,77,2,71,0.00,0.05,0.03,0.03
2017-05-05 11:20:00,2,49506,37,0.00,2,2,0,2,47384,50000,990,50000,0,78,37,36,0.00,0.00,0.00,0.00
2017-05-05 11:30:00,2,49128,0,0.00,2,2,0,2,45609,50000,1709,50000,0,0,0,0,0.00,0.00,0.00,0.00
2017-05-05 11:40:00,2,42487,21,0.01,2,2,0,2,22218,50000,9704,47028,0,71,33,0,0.00,0.10,0.03,0.00
2017-05-05 11:50:00,2,46148,68,0.01,2,2,0,2,36494,50000,5102,49786,0,78,23,77,0.00,0.05,0.02,0.00
2017-05-05 12:00:00,2,29919,74,0.04,2,2,0,2,4288,50000,15458,32076,71,78,3,71,0.00,0.10,0.04,0.03
2017-05-05 12:10:00,2,36900,71,0.03,2,2,0,2,17396,50000,11829,40602,71,71,0,71,0.00,0.15,0.06,0.00
2017-05-05 12:20:00,2,26663,71,0.12,2,2,0,2,12491,42239,9852,28642,71,71,0,71,0.00,0.35,0.12,0.08
2017-05-05 12:30:00,2,28553,71,0.07,2,2,0,2,7145,44207,11692,32297,71,71,0,71,0.00,0.25,0.09,0.00
2017-05-05 12:40:00,2,25614,71,0.07,2,2,0,2,5509,40295,9222,26830,71,71,0,71,0.00,0.20,0.07,0.05
2017-05-05 12:50:00,2,20911,71,0.11,2,2,0,2,8640,33266,7495,21900,71,71,0,71,0.00,0.25,0.08,0.10
2017-05-05 13:00:00,2,21032,71,0.11,2,2,0,2,7929,38900,10732,18682,71,71,0,71,0.00,0.40,0.13,0.08
2017-05-05 13:10:00,2,34676,71,0.07,2,2,0,2,22455,50000,10005,32068,71,71,0,71,0.00,0.30,0.09,0.03
2017-05-05 13:20:00,2,43105,71,0.01,2,2,0,2,30139,50000,7308,46838,71,71,0,71,0.00,0.05,0.02,0.00
2017-05-05 13:30:00,2,41283,65,0.01,2,2,0,2,16442,50000,10859,45108,41,71,12,71,0.00,0.05,0.02,0.00
2017-05-05 13:40:00,2,48540,73,0.01,2,2,0,2,44359,50000,1943,49830,71,78,3,71,0.00,0.05,0.02,0.00
2017-05-05 13:50:00,2,49974,0,0.00,2,2,0,2,49839,50000,53,50000,0,0,0,0,0.00,0.00,0.00,0.00
2017-05-05 14:00:00,2,35195,57,0.07,2,2,0,2,15327,50000,10643,35941,0,71,28,71,0.00,0.30,0.11,0.03
2017-05-05 14:10:00,2,20468,71,0.11,2,2,0,2,7684,44392,11356,18222,71,71,0,71,0.00,0.25,0.09,0.12
2017-05-05 14:20:00,2,32441,71,0.10,2,2,0,2,13013,50000,11686,32572,71,71,0,71,0.00,0.45,0.14,0.03
2017-05-05 14:30:00,2,49511,0,0.00,2,2,0,2,45109,50000,1467,50000,0,0,0,0,0.00,0.00,0.00,0.00
2017-05-05 14:40:00,2,49645,0,0.00,2,2,0,2,46449,50000,1065,50000,0,0,0,0,0.00,0.00,0.00,0.00
2017-05-05 14:50:00,2,50000,0,0.00,2,2,0,2,50000,50000,0,50000,0,0,0,0,0.00,0.00,0.00,0.00
2017-05-05 15:00:00,2,50000,0,0.00,2,2,0,2,50000,50000,0,50000,0,0,0,0,0.00,0.00,0.00,0.00
2017-05-05 15:10:00,2,50000,0,0.00,2,2,0,2,50000,50000,0,50000,0,0,0,0,0.00,0.00,0.00,0.00
2017-05-05 15:20:00,2,50000,0,0.00,2,2,0,2,50000,50000,0,50000,0,0,0,0,0.00,0.00,0.00,0.00
2017-05-05 15:30:00,2,40725,0,0.00,2,2,0,2,2289,50000,15346,50000,0,0,0,0,0.00,0.00,0.00,0.00
2017-05-05 15:40:00,2,41643,0,0.00,2,2,0,2,6437,50000,13355,48713,0,0,0,0,0.00,0.00,0.00,0.00
2017-05-05 15:50:00,2,17626,65,0.04,2,2,0,2,5001,31544,7520,18784,0,77,22,71,0.00,0.20,0.06,0.00
2017-05-05 16:00:00,2,16292,73,0.02,2,2,0,2,4045,43029,12500,13996,71,77,3,71,0.00,0.10,0.03,0.00
2017-05-05 16:10:00,2,25292,73,0.04,2,2,0,2,6612,35789,9033,28785,71,77,3,71,0.00,0.20,0.07,0.00
2017-05-05 16:20:00,2,26870,71,0.10,2,2,0,2,17438,37018,6959,26238,71,71,0,71,0.00,0.25,0.09,0.08
2017-05-05 16:30:00,2,28130,71,0.12,2,2,0,2,16968,36764,6608,28119,71,71,0,71,0.00,0.35,0.15,0.00
2017-05-05 16:40:00,2,21268,71,0.10,2,2,0,2,11350,33700,6520,20363,71,71,0,71,0.00,0.40,0.13,0.05
2017-05-05 16:50:00,2,29192,71,0.10,2,2,0,2,23448,34983,3493,28476,71,71,0,71,0.00,0.30,0.09,0.08
2017-05-05 17:00:00,2,25120,71,0.04,2,2,0,2,10161,44657,10859,24379,71,71,0,71,0.00,0.30,0.09,0.00
2017-05-05 17:10:00,2,12418,71,0.34,2,2,0,2,5943,20698,4661,12453,71,71,0,71,0.05,0.90,0.27,0.28
2017-05-05 17:20:00,2,26238,71,0.06,2,2,0,2,8269,44740,12856,25318,71,71,0,71,0.00,0.20,0.07,0.03
2017-05-05 17:30:00,2,12740,71,0.19,2,2,0,2,2443,27987,8014,14464,71,71,0,71,0.00,0.55,0.21,0.08
2017-05-05 17:40:00,2,7604,48,0.01,2,2,0,2,3036,14731,3601,7067,10,77,31,71,0.00,0.10,0.03,0.00
2017-05-05 17:50:00,2,13081,7,0.00,2,2,0,2,8476,19794,3038,12384,0,10,5,10,0.00,0.00,0.00,0.00
2017-05-05 18:00:00,2,3175,74,0.11,2,2,0,2,1242,7427,1829,2498,71,77,3,74,0.00,0.35,0.11,0.08
2017-05-05 18:10:00,2,1419,71,0.15,2,2,0,2,629,3914,954,972,71,71,0,71,0.00,0.40,0.14,0.10
2017-05-05 18:20:00,2,525,71,0.09,2,2,0,2,318,808,174,536,71,71,0,71,0.00,0.40,0.12,0.05
2017-05-05 18:30:00,2,311,71,0.07,2,2,0,2,274,372,35,302,71,71,0,71,0.05,0.25,0.06,0.05
2017-05-05 18:40:00,2,300,72,0.12,2,2,0,2,262,434,48,286,71,77,2,71,0.05,0.25,0.05,0.10
2017-05-05 18:50:00,2,424,73,0.12,2,2,0,2,317,676,95,407,71,78,3,71,0.00,0.30,0.09,0.12
2017-05-05 19:00:00,2,450,71,0.05,2,2,0,2,378,532,45,463,71,71,0,71,0.00,0.20,0.06,0.03
2017-05-05 19:10:00,2,473,71,0.15,2,2,0,2,388,610,69,457,71,71,0,71,0.00,0.45,0.15,0.10
2017-05-05 19:20:00,2,1261,71,0.30,2,2,0,2,528,3223,775,1054,71,71,0,71,0.05,1.10,0.30,0.20
2017-05-05 19:30:00,2,7232,71,0.25,2,2,0,2,2728,12969,3342,7059,71,71,0,71,0.00,0.95,0.26,0.17
2017-05-05 19:40:00,2,5806,71,0.30,2,2,0,2,1775,9872,2956,6171,71,71,0,71,0.10,0.65,0.16,0.28
2017-05-05 19:50:00,2,4184,71,0.20,2,2,0,2,1469,8139,2093,4171,71,71,0,71,0.05,0.75,0.23,0.10
2017-05-05 20:00:00,2,11324,71,0.08,2,2,0,2,7562,18626,3686,10440,71,71,0,71,0.00,0.25,0.08,0.05
2017-05-05 20:10:00,2,18619,71,0.16,2,2,0,2,15372,24448,2966,17471,71,71,0,71,0.05,0.55,0.15,0.10
2017-05-05 20:20:00,2,19515,71,0.12,2,2,0,2,11489,31287,6083,17812,71,71,0,71,0.00,0.40,0.11,0.10
2017-05-05 20:30:00,2,21154,71,0.21,2,2,0,2,14738,26574,3872,21766,71,71,0,71,0.05,0.45,0.12,0.15
2017-05-05 20:40:00,2,24619,71,0.13,2,2,0,2,16812,38158,6753,23809,71,71,0,71,0.00,0.45,0.14,0.08
2017-05-05 20:50:00,2,21204,71,0.28,2,2,0,2,10965,37084,7189,19698,71,71,0,71,0.00,0.50,0.16,0.30
2017-05-05 21:00:00,2,21954,71,0.22,2,2,0,2,12334,32426,5728,21044,71,71,0,71,0.05,0.65,0.17,0.17
2017-05-05 21:10:00,2,22783,71,0.31,2,2,0,2,18237,29155,3262,21807,71,71,0,71,0.00,0.70,0.23,0.33
2017-05-05 21:20:00,2,22228,71,0.21,2,2,0,2,13081,32279,5959,21878,71,71,0,71,0.00,0.75,0.20,0.15
2017-05-05 21:30:00,2,27256,71,0.20,2,2,0,2,19577,35611,3889,26868,71,71,0,71,0.00,0.45,0.14,0.17
2017-05-05 21:40:00,2,28001,71,0.15,2,2,0,2,19505,36491,5489,27500,71,71,0,71,0.05,0.45,0.14,0.08
2017-05-05 21:50:00,2,32564,71,0.09,2,2,0,2,22767,43185,4993,32418,71,71,0,71,0.00,0.35,0.10,0.05
2017-05-05 22:00:00,2,18792,71,0.21,2,2,0,2,7819,27098,4976,19824,71,71,0,71,0.05,0.55,0.16,0.15
2017-05-05 22:10:00,2,16123,71,0.51,2,2,0,2,7226,32599,6868,14986,71,71,0,71,0.20,1.35,0.32,0.42
2017-05-05 22:20:00,2,14225,71,0.40,2,2,0,2,8289,24167,4738,13979,71,71,0,71,0.10,0.70,0.19,0.35
2017-05-05 22:30:00,2,11410,71,0.47,2,2,0,2,7790,14886,2939,11241,71,71,0,71,0.10,1.10,0.26,0.45
2017-05-05 22:40:00,2,6712,71,0.74,2,2,0,2,2431,13409,2912,6323,71,71,0,71,0.20,1.10,0.33,0.85
2017-05-05 22:50:00,2,6230,71,0.85,2,2,0,2,4383,7701,1023,6478,71,71,0,71,0.45,1.50,0.33,0.82
2017-05-05 23:00:00,2,5978,71,1.17,2,2,0,2,3682,7900,1073,6045,71,71,0,71,0.45,1.80,0.42,1.20
2017-05-05 23:10:00,2,5897,71,0.96,2,2,0,2,2988,10481,1906,5520,71,71,0,71,0.30,2.20,0.47,0.88
2017-05-05 23:20:00,2,7464,71,1.00,2,2,0,2,3570,10998,1913,7638,71,71,0,71,0.40,1.75,0.37,1.02
2017-05-05 23:30:00,2,7750,71,1.04,2,2,0,2,4615,11870,2240,7932,71,71,0,71,0.30,1.90,0.54,0.85
2017-05-05 23:40:00,2,6065,71,1.21,2,2,0,2,3265,10116,1688,5916,71,71,0,71,0.55,2.15,0.52,1.08
2017-05-05 23:50:00,2,5283,71,1.12,2,2,0,2,1906,9090,1677,5401,71,71,0,71,0.40,1.95,0.44,1.15
